Find Starlink 5059

NORAD ID: 53912 Int'l Des: 2022-119 Owner: SPXS Country: US Constellation: starlink operational
LEOCIRCULAR

Current View

Loading 3D Globe...

About Starlink 5059

Starlink 5059 (NORAD 53912) is a starlink constellation satellite (v1.5) launched Sep 24, 2022 by SPXS of US. It operates in LEO, CIRCULAR orbit with a mass of 305.00 kg.

Upcoming Passes

Passes for default location (London). Set your location on the main map for personalized predictions.

Altitude History

Loading altitude history...

Two-Line Element Set

1 53912U 22119AC 26255.24530356 -.00000133 00000-0 97197-5 0 9999
2 53912 53.1605 195.6644 0001364 79.8363 280.2782 15.08832606219995
Epoch: Sep 12, 2026 • Age: 17 hours

Current Status

Altitude 548.9 km
Apogee / Perigee N/A
Velocity 7.59 km/s
Sub-Earth Point -28.82°S, 171.92°W
Launch Date Sep 24, 2022
Age 3.9 years
Type internet

Technical Details

Classification Payload
Mass 305.00 kg
Dry Mass 290.00 kg
Total Mass 305.00 kg
Length 0.20 m
Diameter 2.80 m
Span 9.00 m
Shape Box + pan
Manufacturer SPXS
Bus Type Starlink
Phase Status In Orbit
Owner/State SPXS/US

Most Searched